Regional Weather Roundup
Issued by NWS

Home | Current Version | Previous Version | Text Only | Print | Product List | Glossary Off
Versions: 1 2 3 4 5 6 7 8 9 10 11 12 13 14 15 16 17 18 19 20 21 22 23 24 25 26 27 28 29 30 31 32 33 34 35 36 37 38 39 40 41 42 43 44 45 46 47 48 49 50

000
ASUS45 KSLC 050310
RWRUT

UTAH REGIONAL WEATHER ROUNDUP
NATIONAL WEATHER SERVICE SALT LAKE CITY UT
900 PM MDT FRI SEP 04 2015

UTZ001>011-023>025-050400-

NORTHERN UTAH

CITY           SKY/WX    TMP DP  RH WIND       PRES   REMARKS
BRIGHAM CITY   MOCLDY    78  34  20 SE9       29.71R
HILL AFB       CLOUDY    77  37  23 S15       29.76R
LOGAN          PTCLDY    78  34  20 S21G31    29.71R
OGDEN          MOCLDY    79  36  21 S16       29.73R
PROVO AIRPORT  PTCLDY    79  37  22 S17       29.80R
SALT LAKE CITY PTCLDY    81  33  17 S16       29.74R
VERNAL         TSTM      60  51  72 W22G33    30.02R
WENDOVER       CLEAR     81  19  10 SW17      29.68R
HEBER CITY     PTCLDY    70  34  26 S16G23    29.87R
WEST JORDAN    CLEAR     79  36  21 S16G24    29.77R

$$

UTZ012>022-026-027-050400-

SOUTHERN/CENTRAL UTAH

CITY           SKY/WX    TMP DP  RH WIND       PRES   REMARKS
BLANDING       CLOUDY    66  53  64 SE13      30.12R
BRYCE CANYON   PTCLDY    59  38  45 S9        30.12R
CEDAR CITY     PTCLDY    71  34  25 SW16G24   29.94R
DELTA          CLEAR     75  35  24 S14       29.83R
HANKSVILLE     PTCLDY    77  45  31 SE17G26   29.89R
MILFORD        CLEAR     74  37  26 S16       29.87R
MOAB/CYNLANDS  CLEAR     77  43  29 SE10      29.87R
PRICE          MOCLDY    63  47  55 NE8       29.95R
ST GEORGE      PTCLDY    84  43  23 SW13      29.80R
KANAB          CLEAR     66  50  55 CALM      30.00R

$$

REGIONAL REPORTS     COLORADO/ARIZONA

CITY           SKY/WX    TMP DP  RH WIND       PRES   REMARKS
CRAIG, CO      MOCLDY    64  45  49 SE7       30.04R
GRAND JUNCTION MOCLDY    64  57  78 SE20      29.97R
RIFLE          MOCLDY    60  55  83 CALM      30.06R
MONTROSE       CLOUDY    63  53  70 SE9       30.09R
CORTEZ         PTCLDY    62  51  67 NW5       30.10R
PAGE, AZ       PTCLDY    74  51  44 SE13      29.91R
GRAND CANYON   PTCLDY    64  44  48 SW10      30.11R
KINGMAN        CLEAR     81  46  29 S18       29.88R
FLAGSTAFF      CLOUDY    53  50  89 CALM      30.18R

$$

REGIONAL REPORTS    NEVADA/IDAHO/WYOMING

CITY           SKY/WX    TMP DP  RH WIND       PRES   REMARKS
LAS VEGAS, NV  PTCLDY    90  27  10 S13G21    29.68R
ELY            CLEAR     68  20  16 S17G26    29.89R
ELKO           MOCLDY    69  20  15 SW8G18    29.77R
POCATELLO, ID  CLEAR     66  43  43 E9        29.71F
BURLEY         MOCLDY    63  47  55 W12G18    29.68R
EVANSTON, WY   CLEAR     63  32  31 E8        29.95R
ROCK SPRINGS   CLOUDY    59  44  57 CALM      30.02F
KEMMERER       PTCLDY    59  34  38 SE8       29.98R

$$


USA.gov is the U.S. government's official web portal to all federal, state and local government web resources and services.